| time (UTC) | temp F | wind direction | speed MPH | gust MPH | rain 1hr in | rain 24hr in | rain mn in | humidity % | barometer mb |
| 20260902195817 | 76 | 298 | 7.0 | 17.0 | 0.00 | 0.00 | 0.00 | 68 | 1020.6 |
| 20260902195340 | 76 | 348 | 8.0 | 17.0 | 0.00 | 0.00 | 0.00 | 69 | 1020.7 |
| 20260902194832 | 76 | 63 | 10.0 | 16.0 | 0.00 | 0.00 | 0.00 | 69 | 1020.7 |
| 20260902194335 | 77 | 344 | 8.0 | 15.0 | 0.00 | 0.00 | 0.00 | 70 | 1020.6 |
| 20260902193831 | 77 | 38 | 6.0 | 15.0 | 0.00 | 0.00 | 0.00 | 70 | 1020.5 |
| 20260902193351 | 77 | 57 | 8.0 | 15.0 | 0.00 | 0.00 | 0.00 | 71 | 1020.5 |
| 20260902192817 | 77 | 98 | 8.0 | 15.0 | 0.00 | 0.00 | 0.00 | 71 | 1020.4 |
| 20260902192320 | 77 | 355 | 7.0 | 16.0 | 0.00 | 0.00 | 0.00 | 70 | 1020.4 |
| 20260902191859 | 77 | 51 | 8.0 | 17.0 | 0.00 | 0.00 | 0.00 | 70 | 1020.3 |
| 20260902191325 | 78 | 360 | 9.0 | 15.0 | 0.00 | 0.00 | 0.00 | 69 | 1020.5 |
| 20260902190846 | 78 | 355 | 6.0 | 15.0 | 0.00 | 0.00 | 0.00 | 68 | 1020.5 |
| 20260902190321 | 79 | 75 | 7.0 | 15.0 | 0.00 | 0.00 | 0.00 | 67 | 1020.5 |
| 20260902185821 | 79 | 360 | 5.0 | 12.0 | 0.00 | 0.00 | 0.00 | 66 | 1020.5 |
| 20260902185320 | 79 | 42 | 4.0 | 11.0 | 0.00 | 0.00 | 0.00 | 65 | 1020.5 |
| 20260902184831 | 80 | 329 | 4.0 | 13.0 | 0.00 | 0.00 | 0.00 | 65 | 1020.6 |
| 20260902184334 | 80 | 57 | 8.0 | 13.0 | 0.00 | 0.00 | 0.00 | 63 | 1020.5 |
| 20260902183827 | 81 | 42 | 6.0 | 13.0 | 0.00 | 0.00 | 0.00 | 62 | 1020.6 |
| 20260902183321 | 81 | 55 | 6.0 | 11.0 | 0.00 | 0.00 | 0.00 | 61 | 1020.8 |
| 20260902182825 | 81 | 42 | 4.0 | 11.0 | 0.00 | 0.00 | 0.00 | 61 | 1020.7 |
| 20260902182322 | 82 | 76 | 5.0 | 15.0 | 0.00 | 0.00 | 0.00 | 61 | 1020.8 |
| 20260902181819 | 82 | 360 | 7.0 | 15.0 | 0.00 | 0.00 | 0.00 | 60 | 1020.7 |
| 20260902181322 | 82 | 31 | 7.0 | 13.0 | 0.00 | 0.00 | 0.00 | 61 | 1020.7 |
| 20260902180817 | 82 | 335 | 7.0 | 14.0 | 0.00 | 0.00 | 0.00 | 61 | 1020.7 |
| 20260902180313 | 82 | 52 | 6.0 | 15.0 | 0.00 | 0.00 | 0.00 | 61 | 1020.8 |
| 20260902175837 | 82 | 40 | 7.0 | 14.0 | 0.00 | 0.00 | 0.00 | 61 | 1020.7 |
| 20260902175331 | 83 | 44 | 7.0 | 12.0 | 0.00 | 0.00 | 0.00 | 60 | 1020.7 |
| 20260902174831 | 83 | 35 | 4.0 | 11.0 | 0.00 | 0.00 | 0.00 | 61 | 1020.7 |
| 20260902174327 | 83 | 40 | 5.0 | 12.0 | 0.00 | 0.00 | 0.00 | 61 | 1020.8 |
| 20260902173829 | 83 | 48 | 5.0 | 13.0 | 0.00 | 0.00 | 0.00 | 61 | 1020.7 |
| 20260902173321 | 84 | 50 | 6.0 | 12.0 | 0.00 | 0.00 | 0.00 | 61 | 1020.8 |
| 20260902172823 | 83 | 47 | 5.0 | 12.0 | 0.00 | 0.00 | 0.00 | 61 | 1020.8 |
| 20260902172338 | 84 | 360 | 5.0 | 10.0 | 0.00 | 0.00 | 0.00 | 61 | 1020.8 |
| 20260902171818 | 84 | 314 | 5.0 | 10.0 | 0.00 | 0.00 | 0.00 | 60 | 1020.9 |
| 20260902171340 | 84 | 73 | 3.0 | 10.0 | 0.00 | 0.00 | 0.00 | 61 | 1020.8 |
| 20260902170815 | 84 | 36 | 3.0 | 11.0 | 0.00 | 0.00 | 0.00 | 60 | 1020.9 |
| 20260902170332 | 84 | 66 | 4.0 | 12.0 | 0.00 | 0.00 | 0.00 | 60 | 1020.9 |
| 20260902165830 | 83 | 360 | 4.0 | 12.0 | 0.00 | 0.00 | 0.00 | 61 | 1020.8 |
| 20260902165326 | 83 | 48 | 4.0 | 9.0 | 0.00 | 0.00 | 0.00 | 61 | 1020.9 |
| 20260902164826 | 83 | 355 | 2.0 | 12.0 | 0.00 | 0.00 | 0.00 | 62 | 1021.0 |
| 20260902164334 | 82 | 72 | 7.0 | 12.0 | 0.00 | 0.00 | 0.00 | 62 | 1020.8 |
| 20260902163821 | 82 | 246 | 1.0 | 4.0 | 0.00 | 0.00 | 0.00 | 64 | 1020.9 |
| 20260902163316 | 82 | 360 | 2.0 | 3.0 | 0.00 | 0.00 | 0.00 | 64 | 1021.1 |
| 20260902162836 | 81 | 234 | 0.0 | 6.0 | 0.00 | 0.00 | 0.00 | 65 | 1021.1 |
| 20260902162314 | 82 | 234 | 2.0 | 6.0 | 0.00 | 0.00 | 0.00 | 64 | 1021.1 |
| 20260902161829 | 82 | 218 | 1.0 | 3.0 | 0.00 | 0.00 | 0.00 | 64 | 1021.1 |
| 20260902161333 | 82 | 200 | 2.0 | 3.0 | 0.00 | 0.00 | 0.00 | 64 | 1021.0 |
| 20260902160822 | 82 | 186 | 2.0 | 3.0 | 0.00 | 0.00 | 0.00 | 65 | 1021.3 |
| 20260902160319 | 81 | 217 | 0.0 | 4.0 | 0.00 | 0.00 | 0.00 | 66 | 1021.3 |
| 20260902155834 | 81 | 216 | 2.0 | 4.0 | 0.00 | 0.00 | 0.00 | 67 | 1021.5 |
| 20260902155337 | 81 | 211 | 1.0 | 2.0 | 0.00 | 0.00 | 0.00 | 66 | 1021.5 |
| 20260902154852 | 81 | 211 | 0.0 | 0.0 | 0.00 | 0.00 | 0.00 | 65 | 1021.5 |
| 20260902154332 | 81 | 209 | 0.0 | 0.0 | 0.00 | 0.00 | 0.00 | 66 | 1021.3 |
| 20260902153829 | 81 | 209 | 0.0 | 3.0 | 0.00 | 0.00 | 0.00 | 67 | 1021.3 |
| 20260902153331 | 81 | 209 | 1.0 | 3.0 | 0.00 | 0.00 | 0.00 | 67 | 1021.5 |
| 20260902152821 | 81 | 211 | 1.0 | 4.0 | 0.00 | 0.00 | 0.00 | 69 | 1021.6 |
| 20260902152321 | 81 | 240 | 2.0 | 4.0 | 0.00 | 0.00 | 0.00 | 66 | 1021.6 |
| 20260902151818 | 81 | 360 | 2.0 | 4.0 | 0.00 | 0.00 | 0.00 | 64 | 1021.6 |
| 20260902151320 | 81 | 251 | 3.0 | 4.0 | 0.00 | 0.00 | 0.00 | 65 | 1021.6 |
| 20260902150833 | 81 | 257 | 3.0 | 4.0 | 0.00 | 0.00 | 0.00 | 64 | 1021.7 |
| 20260902150332 | 80 | 252 | 2.0 | 3.0 | 0.00 | 0.00 | 0.00 | 65 | 1021.8 |
| 20260902145827 | 81 | 360 | 2.0 | 3.0 | 0.00 | 0.00 | 0.00 | 65 | 1021.9 |
| 20260902145352 | 81 | 219 | 1.0 | 2.0 | 0.00 | 0.00 | 0.00 | 65 | 1022.0 |
| 20260902144826 | 81 | 219 | 1.0 | 2.0 | 0.00 | 0.00 | 0.00 | 66 | 1022.2 |
| 20260902144328 | 81 | 232 | 1.0 | 2.0 | 0.00 | 0.00 | 0.00 | 66 | 1022.2 |
| 20260902143819 | 80 | 232 | 0.0 | 2.0 | 0.00 | 0.00 | 0.00 | 68 | 1022.1 |
| 20260902143314 | 80 | 232 | 0.0 | 3.0 | 0.00 | 0.00 | 0.00 | 69 | 1022.1 |
| 20260902142824 | 79 | 232 | 2.0 | 3.0 | 0.00 | 0.00 | 0.00 | 69 | 1022.1 |
| 20260902142345 | 79 | 233 | 2.0 | 3.0 | 0.00 | 0.00 | 0.00 | 70 | 1022.1 |
| 20260902141839 | 79 | 233 | 2.0 | 3.0 | 0.00 | 0.00 | 0.00 | 71 | 1022.1 |
| 20260902141321 | 78 | 231 | 2.0 | 3.0 | 0.00 | 0.00 | 0.00 | 72 | 1022.1 |
| 20260902140833 | 78 | 231 | 1.0 | 3.0 | 0.00 | 0.00 | 0.00 | 74 | 1022.1 |
| 20260902140335 | 78 | 232 | 2.0 | 3.0 | 0.00 | 0.00 | 0.00 | 73 | 1022.2 |
| 20260902135826 | 77 | 232 | 2.0 | 3.0 | 0.00 | 0.00 | 0.00 | 73 | 1022.2 |
| 20260902135319 | 77 | 360 | 2.0 | 3.0 | 0.00 | 0.00 | 0.00 | 74 | 1022.3 |
| 20260902134842 | 77 | 229 | 1.0 | 4.0 | 0.00 | 0.00 | 0.00 | 75 | 1022.3 |
| 20260902134336 | 76 | 360 | 2.0 | 4.0 | 0.00 | 0.00 | 0.00 | 75 | 1022.3 |
| 20260902133815 | 76 | 237 | 2.0 | 4.0 | 0.00 | 0.00 | 0.00 | 76 | 1022.4 |
| 20260902133336 | 76 | 360 | 2.0 | 4.0 | 0.00 | 0.00 | 0.00 | 77 | 1022.4 |
| 20260902132829 | 75 | 360 | 3.0 | 4.0 | 0.00 | 0.00 | 0.00 | 76 | 1022.4 |
| 20260902132331 | 75 | 360 | 2.0 | 4.0 | 0.00 | 0.00 | 0.00 | 77 | 1022.3 |
| 20260902131848 | 75 | 360 | 2.0 | 5.0 | 0.00 | 0.00 | 0.00 | 76 | 1022.4 |
| 20260902131329 | 75 | 360 | 3.0 | 5.0 | 0.00 | 0.00 | 0.00 | 77 | 1022.4 |
| 20260902130826 | 75 | 360 | 4.0 | 5.0 | 0.00 | 0.00 | 0.00 | 77 | 1022.3 |
| 20260902130328 | 75 | 360 | 3.0 | 5.0 | 0.00 | 0.00 | 0.00 | 78 | 1022.3 |
| 20260902125824 | 75 | 360 | 4.0 | 5.0 | 0.00 | 0.00 | 0.00 | 77 | 1022.4 |
| 20260902125317 | 75 | 225 | 2.0 | 3.0 | 0.00 | 0.00 | 0.00 | 77 | 1022.5 |
| 20260902124819 | 75 | 225 | 1.0 | 3.0 | 0.00 | 0.00 | 0.00 | 78 | 1022.6 |
| 20260902124341 | 75 | 205 | 2.0 | 4.0 | 0.00 | 0.00 | 0.00 | 78 | 1022.6 |
| 20260902123841 | 74 | 213 | 2.0 | 4.0 | 0.00 | 0.00 | 0.00 | 77 | 1022.8 |
| 20260902123317 | 74 | 227 | 2.0 | 4.0 | 0.00 | 0.00 | 0.00 | 78 | 1022.7 |
| 20260902122832 | 74 | 360 | 3.0 | 4.0 | 0.00 | 0.00 | 0.00 | 78 | 1022.8 |
| 20260902122335 | 73 | 360 | 2.0 | 5.0 | 0.00 | 0.00 | 0.00 | 80 | 1022.9 |
| 20260902121830 | 73 | 246 | 3.0 | 6.0 | 0.00 | 0.00 | 0.00 | 80 | 1023.0 |
| 20260902121336 | 72 | 360 | 4.0 | 7.0 | 0.00 | 0.00 | 0.00 | 80 | 1023.1 |
| 20260902120829 | 72 | 360 | 4.0 | 8.0 | 0.00 | 0.00 | 0.00 | 80 | 1023.0 |
| 20260902120325 | 72 | 360 | 5.0 | 8.0 | 0.00 | 0.00 | 0.00 | 79 | 1023.1 |
| 20260902115827 | 72 | 234 | 4.0 | 6.0 | 0.00 | 0.00 | 0.00 | 79 | 1023.1 |
| 20260902115329 | 73 | 360 | 3.0 | 4.0 | 0.00 | 0.00 | 0.00 | 78 | 1023.1 |
| 20260902114825 | 73 | 199 | 1.0 | 3.0 | 0.00 | 0.00 | 0.00 | 79 | 1023.2 |
| 20260902114320 | 73 | 199 | 1.0 | 3.0 | 0.00 | 0.00 | 0.00 | 79 | 1023.4 |
| 20260902113841 | 72 | 199 | 1.0 | 3.0 | 0.00 | 0.00 | 0.00 | 80 | 1023.3 |
| 20260902113344 | 72 | 199 | 2.0 | 3.0 | 0.00 | 0.00 | 0.00 | 80 | 1023.5 |
| 20260902112815 | 72 | 242 | 1.0 | 3.0 | 0.00 | 0.00 | 0.00 | 81 | 1023.5 |
| 20260902112327 | 72 | 213 | 1.0 | 3.0 | 0.00 | 0.00 | 0.00 | 81 | 1023.5 |
| 20260902111815 | 71 | 211 | 1.0 | 5.0 | 0.00 | 0.00 | 0.00 | 82 | 1023.4 |
| 20260902111315 | 71 | 360 | 2.0 | 6.0 | 0.00 | 0.00 | 0.00 | 82 | 1023.5 |
| 20260902110817 | 71 | 360 | 2.0 | 8.0 | 0.00 | 0.00 | 0.00 | 83 | 1023.6 |
| 20260902110313 | 70 | 202 | 4.0 | 8.0 | 0.00 | 0.00 | 0.00 | 83 | 1023.6 |
| 20260902105831 | 70 | 360 | 3.0 | 8.0 | 0.00 | 0.00 | 0.00 | 83 | 1023.5 |
| 20260902105327 | 70 | 360 | 5.0 | 8.0 | 0.00 | 0.00 | 0.00 | 83 | 1023.4 |
| 20260902104847 | 70 | 360 | 4.0 | 7.0 | 0.00 | 0.00 | 0.00 | 83 | 1023.4 |
| 20260902104320 | 70 | 232 | 4.0 | 8.0 | 0.00 | 0.00 | 0.00 | 82 | 1023.4 |
| 20260902103830 | 70 | 200 | 4.0 | 8.0 | 0.00 | 0.00 | 0.00 | 82 | 1023.4 |
| 20260902103330 | 70 | 360 | 5.0 | 8.0 | 0.00 | 0.00 | 0.00 | 82 | 1023.4 |
| 20260902102814 | 70 | 360 | 4.0 | 8.0 | 0.00 | 0.00 | 0.00 | 82 | 1023.4 |
| 20260902102337 | 70 | 360 | 4.0 | 8.0 | 0.00 | 0.00 | 0.00 | 82 | 1023.3 |
| 20260902101827 | 70 | 360 | 4.0 | 6.0 | 0.00 | 0.00 | 0.00 | 82 | 1023.5 |
| 20260902101350 | 70 | 240 | 3.0 | 6.0 | 0.00 | 0.00 | 0.00 | 81 | 1023.5 |
| 20260902100825 | 70 | 360 | 3.0 | 6.0 | 0.00 | 0.00 | 0.00 | 79 | 1023.4 |
| 20260902100327 | 71 | 360 | 2.0 | 8.0 | 0.00 | 0.00 | 0.00 | 80 | 1023.3 |
| 20260902095829 | 71 | 360 | 4.0 | 8.0 | 0.00 | 0.00 | 0.00 | 81 | 1023.2 |
| 20260902095324 | 70 | 205 | 1.0 | 5.0 | 0.00 | 0.00 | 0.00 | 81 | 1023.1 |
| 20260902094821 | 70 | 360 | 2.0 | 6.0 | 0.00 | 0.00 | 0.00 | 80 | 1023.0 |
| 20260902094325 | 70 | 188 | 3.0 | 6.0 | 0.00 | 0.00 | 0.00 | 80 | 1023.1 |
| 20260902093820 | 70 | 360 | 3.0 | 6.0 | 0.00 | 0.00 | 0.00 | 80 | 1023.1 |
| 20260902093317 | 70 | 360 | 2.0 | 8.0 | 0.00 | 0.00 | 0.00 | 78 | 1023.0 |
| 20260902092820 | 71 | 129 | 3.0 | 8.0 | 0.00 | 0.00 | 0.00 | 79 | 1022.9 |
| 20260902092317 | 70 | 197 | 2.0 | 9.0 | 0.00 | 0.00 | 0.00 | 79 | 1023.0 |
| 20260902091813 | 70 | 225 | 2.0 | 9.0 | 0.00 | 0.00 | 0.00 | 79 | 1023.0 |
| 20260902091317 | 70 | 169 | 2.0 | 6.0 | 0.00 | 0.00 | 0.00 | 80 | 1022.9 |
| 20260902090814 | 70 | 115 | 1.0 | 3.0 | 0.00 | 0.00 | 0.00 | 80 | 1022.9 |
| 20260902090314 | 69 | 188 | 1.0 | 5.0 | 0.00 | 0.00 | 0.00 | 80 | 1022.8 |
| 20260902085830 | 69 | 231 | 2.0 | 6.0 | 0.00 | 0.00 | 0.00 | 79 | 1022.8 |
| 20260902085314 | 70 | 360 | 1.0 | 8.0 | 0.00 | 0.00 | 0.00 | 78 | 1022.6 |
| 20260902084815 | 70 | 29 | 3.0 | 8.0 | 0.00 | 0.00 | 0.00 | 78 | 1022.6 |
| 20260902084330 | 70 | 316 | 1.0 | 9.0 | 0.00 | 0.00 | 0.00 | 79 | 1022.7 |
| 20260902083834 | 70 | 302 | 3.0 | 9.0 | 0.00 | 0.00 | 0.00 | 78 | 1022.7 |
| 20260902083329 | 70 | 53 | 3.0 | 9.0 | 0.00 | 0.00 | 0.00 | 79 | 1022.7 |
| 20260902082833 | 70 | 293 | 3.0 | 10.0 | 0.00 | 0.00 | 0.00 | 79 | 1022.7 |
| 20260902082328 | 69 | 46 | 6.0 | 12.0 | 0.00 | 0.00 | 0.00 | 80 | 1022.7 |
| 20260902081824 | 69 | 360 | 4.0 | 10.0 | 0.00 | 0.00 | 0.00 | 80 | 1022.6 |
| 20260902081329 | 69 | 82 | 6.0 | 13.0 | 0.00 | 0.00 | 0.00 | 81 | 1022.6 |
| 20260902080825 | 69 | 351 | 7.0 | 13.0 | 0.00 | 0.00 | 0.00 | 81 | 1022.6 |
| 20260902080329 | 69 | 340 | 4.0 | 12.0 | 0.00 | 0.00 | 0.00 | 81 | 1022.7 |
| 20260902075822 | 68 | 42 | 5.0 | 9.0 | 0.00 | 0.00 | 0.00 | 81 | 1022.4 |
| 20260902075318 | 68 | 65 | 2.0 | 11.0 | 0.00 | 0.00 | 0.00 | 82 | 1022.6 |
| 20260902074820 | 68 | 313 | 6.0 | 11.0 | 0.00 | 0.00 | 0.00 | 82 | 1022.4 |
| 20260902074316 | 68 | 349 | 2.0 | 10.0 | 0.00 | 0.00 | 0.00 | 83 | 1022.6 |
| 20260902073815 | 68 | 360 | 2.0 | 8.0 | 0.00 | 0.00 | 0.00 | 83 | 1022.6 |
| 20260902073339 | 67 | 60 | 5.0 | 8.0 | 0.00 | 0.00 | 0.00 | 83 | 1022.6 |
| 20260902072830 | 67 | 61 | 3.0 | 9.0 | 0.00 | 0.00 | 0.00 | 84 | 1022.4 |
| 20260902072332 | 67 | 321 | 3.0 | 9.0 | 0.00 | 0.00 | 0.00 | 84 | 1022.4 |
| 20260902071817 | 67 | 360 | 4.0 | 11.0 | 0.00 | 0.00 | 0.00 | 84 | 1022.4 |
| 20260902071335 | 67 | 42 | 4.0 | 9.0 | 0.00 | 0.00 | 0.00 | 85 | 1022.3 |
| 20260902070826 | 67 | 71 | 3.0 | 9.0 | 0.00 | 0.00 | 0.00 | 85 | 1022.3 |
| 20260902070321 | 66 | 78 | 3.0 | 9.0 | 0.00 | 0.00 | 0.00 | 86 | 1022.2 |
| 20260902065905 | 66 | 76 | 3.0 | 7.0 | 0.00 | 0.00 | 0.00 | 86 | 1022.2 |
| 20260902065315 | 66 | 73 | 3.0 | 7.0 | 0.00 | 0.00 | 0.00 | 86 | 1022.0 |
| 20260902064856 | 66 | 90 | 1.0 | 3.0 | 0.00 | 0.00 | 0.00 | 87 | 1022.1 |
| 20260902064324 | 65 | 51 | 0.0 | 4.0 | 0.00 | 0.00 | 0.00 | 86 | 1022.0 |
| 20260902063824 | 65 | 121 | 1.0 | 4.0 | 0.00 | 0.00 | 0.00 | 87 | 1022.0 |
| 20260902063316 | 65 | 41 | 1.0 | 4.0 | 0.00 | 0.00 | 0.00 | 87 | 1021.9 |
| 20260902062830 | 65 | 62 | 2.0 | 8.0 | 0.00 | 0.00 | 0.00 | 87 | 1021.9 |
| 20260902062321 | 65 | 51 | 3.0 | 8.0 | 0.00 | 0.00 | 0.00 | 86 | 1021.9 |
| 20260902061841 | 65 | 52 | 1.0 | 8.0 | 0.00 | 0.00 | 0.00 | 86 | 1021.8 |
| 20260902061425 | 65 | 95 | 2.0 | 6.0 | 0.00 | 0.00 | 0.00 | 86 | 1021.7 |
| 20260902060826 | 65 | 92 | 1.0 | 6.0 | 0.00 | 0.00 | 0.00 | 86 | 1021.7 |
| 20260902060316 | 65 | 99 | 1.0 | 6.0 | 0.00 | 0.00 | 0.00 | 86 | 1021.6 |
| 20260902055824 | 65 | 75 | 3.0 | 8.0 | 0.00 | 0.00 | 0.00 | 86 | 1021.7 |
| 20260902055343 | 65 | 321 | 4.0 | 8.0 | 0.00 | 0.00 | 0.00 | 86 | 1021.6 |
| 20260902054816 | 65 | 86 | 1.0 | 6.0 | 0.00 | 0.00 | 0.00 | 86 | 1021.4 |
| 20260902054354 | 65 | 50 | 0.0 | 10.0 | 0.00 | 0.00 | 0.00 | 86 | 1021.4 |
| 20260902053824 | 65 | 322 | 2.0 | 10.0 | 0.00 | 0.00 | 0.00 | 86 | 1021.5 |
| 20260902053329 | 65 | 93 | 3.0 | 9.0 | 0.00 | 0.00 | 0.00 | 86 | 1021.3 |
| 20260902052823 | 65 | 225 | 1.0 | 9.0 | 0.00 | 0.00 | 0.00 | 86 | 1021.2 |
| 20260902052341 | 65 | 311 | 2.0 | 9.0 | 0.00 | 0.00 | 0.00 | 86 | 1021.2 |
| 20260902051827 | 65 | 310 | 1.0 | 12.0 | 0.00 | 0.00 | 0.00 | 86 | 1021.1 |
| 20260902051316 | 65 | 360 | 2.0 | 12.0 | 0.00 | 0.00 | 0.00 | 86 | 1021.0 |
| 20260902050816 | 65 | 86 | 4.0 | 12.0 | 0.00 | 0.00 | 0.00 | 86 | 1020.9 |
| 20260902050313 | 65 | 308 | 3.0 | 12.0 | 0.00 | 0.00 | 0.00 | 86 | 1020.8 |
| 20260902045827 | 65 | 73 | 2.0 | 16.0 | 0.00 | 0.00 | 0.00 | 86 | 1020.8 |
| 20260902045322 | 65 | 132 | 8.0 | 17.0 | 0.00 | 0.00 | 0.00 | 86 | 1020.8 |
| 20260902044818 | 65 | 79 | 8.0 | 18.0 | 0.00 | 0.00 | 0.00 | 86 | 1020.7 |
| 20260902044325 | 65 | 88 | 7.0 | 19.0 | 0.00 | 0.00 | 0.00 | 86 | 1020.6 |
| 20260902043818 | 65 | 47 | 7.0 | 19.0 | 0.00 | 0.00 | 0.00 | 86 | 1020.6 |
| 20260902043332 | 65 | 53 | 8.0 | 18.0 | 0.00 | 0.00 | 0.00 | 86 | 1020.6 |
| 20260902042823 | 65 | 51 | 9.0 | 17.0 | 0.00 | 0.00 | 0.00 | 86 | 1020.8 |
| 20260902042325 | 65 | 59 | 9.0 | 17.0 | 0.00 | 0.00 | 0.00 | 86 | 1020.8 |
| 20260902041833 | 65 | 28 | 9.0 | 17.0 | 0.00 | 0.00 | 0.00 | 86 | 1020.8 |
| 20260902041325 | 66 | 41 | 8.0 | 17.0 | 0.00 | 0.00 | 0.00 | 85 | 1020.9 |
| 20260902040822 | 66 | 355 | 9.0 | 18.0 | 0.00 | 0.00 | 0.00 | 85 | 1021.0 |
| 20260902040314 | 66 | 355 | 8.0 | 17.0 | 0.00 | 0.00 | 0.00 | 85 | 1021.0 |
| 20260902035813 | 66 | 67 | 7.0 | 16.0 | 0.00 | 0.00 | 0.00 | 85 | 1021.0 |
| 20260902035325 | 66 | 338 | 8.0 | 20.0 | 0.00 | 0.00 | 0.00 | 85 | 1021.0 |
| 20260902034818 | 66 | 330 | 10.0 | 20.0 | 0.00 | 0.00 | 0.00 | 85 | 1021.0 |
| 20260902034333 | 66 | 65 | 8.0 | 19.0 | 0.00 | 0.00 | 0.00 | 85 | 1021.1 |
| 20260902033831 | 66 | 65 | 10.0 | 20.0 | 0.00 | 0.00 | 0.00 | 85 | 1021.1 |
| 20260902033316 | 66 | 31 | 9.0 | 16.0 | 0.00 | 0.00 | 0.00 | 85 | 1021.1 |
| 20260902032814 | 66 | 42 | 6.0 | 16.0 | 0.00 | 0.00 | 0.00 | 85 | 1021.2 |
| 20260902032330 | 66 | 71 | 8.0 | 19.0 | 0.00 | 0.00 | 0.00 | 85 | 1021.2 |
| 20260902031828 | 66 | 42 | 10.0 | 19.0 | 0.00 | 0.00 | 0.00 | 85 | 1021.3 |
| 20260902031325 | 66 | 346 | 9.0 | 16.0 | 0.00 | 0.00 | 0.00 | 85 | 1021.3 |
| 20260902030822 | 66 | 309 | 5.0 | 16.0 | 0.00 | 0.00 | 0.00 | 85 | 1021.4 |
| 20260902030321 | 66 | 334 | 7.0 | 18.0 | 0.00 | 0.00 | 0.00 | 85 | 1021.4 |
| 20260902025827 | 66 | 300 | 7.0 | 18.0 | 0.00 | 0.00 | 0.00 | 85 | 1021.5 |
| 20260902025321 | 66 | 360 | 9.0 | 16.0 | 0.00 | 0.00 | 0.00 | 85 | 1021.4 |
| 20260902024821 | 66 | 39 | 6.0 | 16.0 | 0.00 | 0.00 | 0.00 | 85 | 1021.4 |
| 20260902024318 | 66 | 315 | 10.0 | 16.0 | 0.00 | 0.00 | 0.00 | 85 | 1021.5 |
| 20260902023822 | 66 | 32 | 10.0 | 16.0 | 0.00 | 0.00 | 0.00 | 85 | 1021.4 |
| 20260902023338 | 66 | 42 | 6.0 | 15.0 | 0.00 | 0.00 | 0.00 | 85 | 1021.4 |
| 20260902022840 | 66 | 34 | 8.0 | 22.0 | 0.00 | 0.00 | 0.00 | 85 | 1021.5 |
| 20260902022332 | 66 | 74 | 9.0 | 22.0 | 0.00 | 0.00 | 0.00 | 85 | 1021.6 |
| 20260902021820 | 66 | 333 | 9.0 | 19.0 | 0.00 | 0.00 | 0.00 | 85 | 1021.6 |
| 20260902021353 | 66 | 53 | 9.0 | 19.0 | 0.00 | 0.00 | 0.00 | 85 | 1021.6 |
| 20260902020824 | 66 | 40 | 7.0 | 17.0 | 0.00 | 0.00 | 0.00 | 85 | 1021.5 |
| 20260902020317 | 66 | 47 | 6.0 | 16.0 | 0.00 | 0.00 | 0.00 | 85 | 1021.6 |
| 20260902015853 | 66 | 73 | 9.0 | 17.0 | 0.00 | 0.00 | 0.00 | 85 | 1021.5 |
| 20260902015347 | 66 | 349 | 10.0 | 19.0 | 0.00 | 0.00 | 0.00 | 85 | 1021.6 |
| 20260902014831 | 66 | 75 | 9.0 | 17.0 | 0.00 | 0.00 | 0.00 | 85 | 1021.6 |
| 20260902014318 | 66 | 87 | 7.0 | 18.0 | 0.00 | 0.00 | 0.00 | 85 | 1021.6 |
| 20260902013846 | 66 | 355 | 9.0 | 17.0 | 0.00 | 0.00 | 0.00 | 85 | 1021.8 |
| 20260902013339 | 66 | 28 | 9.0 | 19.0 | 0.00 | 0.00 | 0.00 | 85 | 1021.8 |
| 20260902012851 | 66 | 308 | 12.0 | 24.0 | 0.00 | 0.00 | 0.00 | 85 | 1021.9 |
| 20260902012317 | 66 | 346 | 10.0 | 23.0 | 0.00 | 0.00 | 0.00 | 85 | 1021.9 |
| 20260902011835 | 66 | 39 | 11.0 | 23.0 | 0.00 | 0.00 | 0.00 | 85 | 1021.9 |
| 20260902011328 | 66 | 75 | 9.0 | 19.0 | 0.00 | 0.00 | 0.00 | 85 | 1021.9 |
| 20260902010836 | 66 | 355 | 8.0 | 21.0 | 0.00 | 0.00 | 0.00 | 84 | 1021.7 |
| 20260902010326 | 66 | 55 | 11.0 | 18.0 | 0.00 | 0.00 | 0.00 | 84 | 1021.8 |
| 20260902005824 | 66 | 322 | 9.0 | 19.0 | 0.00 | 0.00 | 0.00 | 84 | 1021.8 |
| 20260902005335 | 66 | 64 | 11.0 | 21.0 | 0.00 | 0.00 | 0.00 | 84 | 1021.8 |
| 20260902004829 | 66 | 33 | 10.0 | 22.0 | 0.00 | 0.00 | 0.00 | 84 | 1021.9 |
| 20260902004318 | 66 | 55 | 10.0 | 21.0 | 0.00 | 0.00 | 0.00 | 84 | 1021.8 |
| 20260902003817 | 66 | 360 | 10.0 | 20.0 | 0.00 | 0.00 | 0.00 | 85 | 1021.8 |
| 20260902003324 | 66 | 51 | 12.0 | 19.0 | 0.00 | 0.00 | 0.00 | 85 | 1021.8 |
| 20260902002815 | 66 | 39 | 11.0 | 19.0 | 0.00 | 0.00 | 0.00 | 85 | 1021.9 |
| 20260902002331 | 66 | 355 | 10.0 | 19.0 | 0.00 | 0.00 | 0.00 | 84 | 1021.9 |
| 20260902001823 | 66 | 41 | 6.0 | 21.0 | 0.00 | 0.00 | 0.00 | 84 | 1021.9 |
| 20260902001326 | 66 | 55 | 10.0 | 21.0 | 0.00 | 0.00 | 0.00 | 84 | 1021.9 |
| 20260902000825 | 66 | 340 | 9.0 | 23.0 | 0.00 | 0.00 | 0.00 | 84 | 1021.9 |
| 20260902000322 | 66 | 348 | 8.0 | 23.0 | 0.00 | 0.00 | 0.00 | 84 | 1021.9 |
| 20260901235814 | 66 | 70 | 9.0 | 23.0 | 0.00 | 0.00 | 0.00 | 84 | 1021.9 |
| 20260901235338 | 66 | 36 | 9.0 | 25.0 | 0.00 | 0.00 | 0.00 | 84 | 1021.8 |
| 20260901234832 | 67 | 34 | 10.0 | 25.0 | 0.00 | 0.00 | 0.00 | 84 | 1021.9 |
| 20260901234326 | 67 | 101 | 10.0 | 20.0 | 0.00 | 0.00 | 0.00 | 84 | 1021.8 |
| 20260901233827 | 67 | 360 | 10.0 | 20.0 | 0.00 | 0.00 | 0.00 | 83 | 1021.8 |
| 20260901233322 | 67 | 329 | 9.0 | 21.0 | 0.00 | 0.00 | 0.00 | 83 | 1021.9 |
| 20260901232824 | 67 | 360 | 10.0 | 21.0 | 0.00 | 0.00 | 0.00 | 83 | 1022.0 |
| 20260901232346 | 67 | 336 | 10.0 | 20.0 | 0.00 | 0.00 | 0.00 | 83 | 1022.0 |
| 20260901231839 | 67 | 326 | 10.0 | 18.0 | 0.00 | 0.00 | 0.00 | 83 | 1022.1 |
| 20260901231317 | 67 | 53 | 11.0 | 21.0 | 0.00 | 0.00 | 0.00 | 84 | 1022.1 |
| 20260901230831 | 67 | 323 | 12.0 | 21.0 | 0.00 | 0.00 | 0.00 | 83 | 1022.0 |
| 20260901230334 | 67 | 337 | 6.0 | 16.0 | 0.00 | 0.00 | 0.00 | 83 | 1022.0 |
| 20260901225829 | 67 | 80 | 9.0 | 19.0 | 0.00 | 0.00 | 0.00 | 84 | 1022.2 |
| 20260901225352 | 67 | 75 | 11.0 | 19.0 | 0.00 | 0.00 | 0.00 | 84 | 1022.2 |
| 20260901224855 | 67 | 88 | 8.0 | 15.0 | 0.00 | 0.00 | 0.00 | 84 | 1022.3 |
| 20260901224330 | 67 | 42 | 6.0 | 15.0 | 0.00 | 0.00 | 0.00 | 84 | 1022.3 |
| 20260901223830 | 67 | 325 | 6.0 | 15.0 | 0.00 | 0.00 | 0.00 | 83 | 1022.5 |
| 20260901223336 | 67 | 86 | 7.0 | 13.0 | 0.00 | 0.00 | 0.00 | 83 | 1022.5 |
| 20260901222835 | 67 | 327 | 4.0 | 13.0 | 0.00 | 0.00 | 0.00 | 83 | 1022.5 |
| 20260901222356 | 67 | 63 | 5.0 | 14.0 | 0.00 | 0.00 | 0.00 | 83 | 1022.6 |
| 20260901221830 | 67 | 338 | 7.0 | 16.0 | 0.00 | 0.00 | 0.00 | 83 | 1022.6 |
| 20260901221327 | 67 | 30 | 7.0 | 19.0 | 0.00 | 0.00 | 0.00 | 83 | 1022.6 |
| 20260901220827 | 67 | 42 | 10.0 | 19.0 | 0.00 | 0.00 | 0.00 | 83 | 1022.7 |
| 20260901220323 | 67 | 50 | 6.0 | 14.0 | 0.00 | 0.00 | 0.00 | 82 | 1022.6 |
| 20260901215827 | 67 | 360 | 3.0 | 16.0 | 0.00 | 0.00 | 0.00 | 82 | 1022.6 |
| 20260901215323 | 67 | 322 | 4.0 | 9.0 | 0.00 | 0.00 | 0.00 | 82 | 1022.8 |
| 20260901214845 | 67 | 300 | 3.0 | 9.0 | 0.00 | 0.00 | 0.00 | 82 | 1022.9 |
| 20260901214320 | 67 | 78 | 1.0 | 14.0 | 0.00 | 0.00 | 0.00 | 82 | 1022.8 |
| 20260901213816 | 67 | 107 | 6.0 | 14.0 | 0.00 | 0.00 | 0.00 | 82 | 1022.8 |
| 20260901213318 | 67 | 360 | 3.0 | 9.0 | 0.00 | 0.00 | 0.00 | 81 | 1022.9 |
| 20260901212813 | 67 | 147 | 3.0 | 10.0 | 0.00 | 0.00 | 0.00 | 81 | 1022.8 |
| 20260901212333 | 67 | 128 | 4.0 | 10.0 | 0.00 | 0.00 | 0.00 | 81 | 1022.8 |
| 20260901211829 | 68 | 120 | 3.0 | 10.0 | 0.00 | 0.00 | 0.00 | 81 | 1022.8 |
| 20260901211331 | 68 | 143 | 6.0 | 14.0 | 0.00 | 0.00 | 0.00 | 81 | 1022.6 |
| 20260901210825 | 68 | 73 | 3.0 | 13.0 | 0.00 | 0.00 | 0.00 | 80 | 1022.6 |
| 20260901210329 | 68 | 318 | 4.0 | 19.0 | 0.00 | 0.00 | 0.00 | 80 | 1022.4 |
| 20260901205824 | 68 | 355 | 9.0 | 20.0 | 0.00 | 0.00 | 0.00 | 80 | 1022.4 |
| 20260901205328 | 68 | 360 | 3.0 | 20.0 | 0.00 | 0.00 | 0.00 | 80 | 1022.3 |
| 20260901204822 | 68 | 328 | 6.0 | 20.0 | 0.00 | 0.00 | 0.00 | 80 | 1022.1 |
| 20260901204318 | 68 | 64 | 9.0 | 20.0 | 0.00 | 0.00 | 0.00 | 80 | 1022.1 |
| 20260901203820 | 68 | 273 | 9.0 | 22.0 | 0.00 | 0.00 | 0.00 | 80 | 1022.0 |
| 20260901203316 | 68 | 37 | 11.0 | 22.0 | 0.00 | 0.00 | 0.00 | 80 | 1021.8 |
| 20260901202818 | 68 | 343 | 10.0 | 24.0 | 0.00 | 0.00 | 0.00 | 80 | 1021.8 |
| 20260901202325 | 68 | 348 | 10.0 | 20.0 | 0.00 | 0.00 | 0.00 | 80 | 1021.9 |
| 20260901201840 | 68 | 338 | 10.0 | 21.0 | 0.00 | 0.00 | 0.00 | 79 | 1021.8 |
| 20260901201323 | 68 | 360 | 9.0 | 19.0 | 0.00 | 0.00 | 0.00 | 79 | 1021.7 |
| 20260901200820 | 68 | 339 | 10.0 | 19.0 | 0.00 | 0.00 | 0.00 | 79 | 1021.6 |
| 20260901200344 | 68 | 355 | 7.0 | 22.0 | 0.00 | 0.00 | 0.00 | 79 | 1021.6 |